User: anonymous   Login
Location: Brno
(49.2000°N, 16.6330°E)
Time: 15:18:11
(UTC+01:00)
Language:

Meteor 1-4 Rocket - Orbit

View from above orbital plane
View from above orbital plane
View from above satellite
View from above satellite

Ground track
Ground track

The orbit data is extracted from the following two-line orbital elements,

1 04394U 70037B   14352.84470998  .00010035  00000-0  42048-3 0  7528
2 04394 081.2443 001.5324 0045502 348.3481 011.6693 15.22433468425786
Epoch (UTC): 18 December 2014 20:16:22
Eccentricity: 0.0045502
inclination: 81.2443°
perigee height: 467 km
apogee height: 530 km
right ascension of ascending node: 1.5324°
argument of perigee: 348.3481°
revolutions per day: 15.22433468
mean anomaly at epoch: 11.6693°
orbit number at epoch: 42578

The dashed part of the orbit path shows where the satellite is in the earth's shadow,  

DLR